(L38) Gartensternwarte Schafsweide, Sehlde  (N52.095274 E9.699970)  Germany.
   Observer A. Opitz. 0.35-m f/4.6 Newton + CCD.
(L39) Osservatorio Spica, Signa  (N43.789202 E11.040310)  Italy.  Observers
   M. Bertini, L. Franchini. 0.30-m Newtonian reflector + CCD.
(L47) Osservatorio Astronomico, Piobbico  (N43.585893 E12.507110)  Italy.
   Observers A. Teseo, A. Annamelia. 0.20-m f/6.3 Schmidt-Cassegrain + CCD.
(L65) Bredenkamp Observatory, Bremen  (N53.075279 E8.828310)  Germany.
   Observer H. Duin. 0.23-m f/6.3 reflector + CMO.
(M26) Zen Observatory, Scandicci  (N43.774583 E11.134940)  Italy.  Observers
   M. Lombardo, K. Lombardo. Measurer M. Lombardo. 0.30-m f/8
   Ritchey-Chrétien + CCD.
(M54) Observatoire Albireo de Biot  (N43.617354 E7.077810)  France.
(T05) ATLAS-HKO, Haleakala  (N20.707551 W156.257010)  US/Hawaii.  Observers
   L. Denneau, A. Heinze, H. Weiland, J. Tonry, H. Flewelling, A.
   Fitzsimmons, D. Young, B. Stalder. Measurers L. Denneau, A. Heinze, J.
   Tonry. 0.5-m f/2.0 Schmidt + CCD.
(T08) ATLAS-MLO, Mauna Loa  (N19.536150 W155.576050)  US/Hawaii.  Observers
   L. Denneau, A. Heinze, H. Weiland, J. Tonry, H. Flewelling, A.
   Fitzsimmons, D. Young, B. Stalder. Measurers L. Denneau, A. Heinze, J.
   Tonry. 0.5-m f/2.0 Schmidt + CCD.
(W05) Tree Gate Farm Observatory, Starkville  (N33.347635 W88.732810).
(Z43) Landehen  (N48.434102 W2.537840)  France.  Observer C. Ratinaud. 0.25-m
   f/4.7 Reflector + CCD.
(Z80) Northolt Branch Observatory  (N51.554659 W0.371920)  UK/England.
   Observer G. Wells. Measurer D. Bamberger. 0.25-m f/8 Ritchey-Chrétien +
   CCD.

Orbital elements:  A11lv5e
   Perihelion 2025 May 15.84779 +/- 0.0125 TT = 20:20:49 (JD 2460811.34779)
Epoch 2025 Apr  2.0 TT = JDT 2460767.5   Earth MOID: 0.0042   Ma: 0.0206
M 328.63231219 +/- 0.021            (J2000 ecliptic)             AutoNEOCP
n   0.71537671 +/- 0.000286         Peri.  226.02757 +/- 0.009
a   1.23816783 +/- 0.00033          Node    15.36008 +/- 0.00023
e   0.2355665 +/- 0.000219          Incl.   19.13699 +/- 0.011
P   1.378/503.222d         H 24.77  G  0.15   U  7.3
q 0.94649687 +/- 1.81e-5    Q 1.52983879 +/- 0.000678
96 of 98 observations 2025 Apr. 1-2 (37.3 hr); mean residual 0".31
Residuals in arcseconds: 
250401 T08  .16+  .33+    250401 L65  .16+  .46+    250402 M26  .06+  .08-    
250401 T08  .49-  .05+    250401 M54  .39+  .03+    250402 G02  .35-  .20+    
250401 T08  .51-  .29-    250401 L65  .12+  .00     250402 B72  .09+  .03-    
250401 T08  .07-  .19-    250401 Z43  .05+  .06+    250402 M26  .78-  .62-    
250401 T08  .18-  .06+    250402 J95  .02+  .12-    250402 G02  .68-  .35-    
250401 T05  .09+  .06-    250402 J95  .17-  .08-    250402 M26  .33-  .13-    
250401 T08  .31-  .20-    250402 J95  .11+  .19+    250402 B72  .07+  .03+    
250401 K35  .55+  .29+    250402 J95  .00   .01-    250402 B72  .41+  .16+    
250401 K35  .39+  .25+    250402 932  .77-  .10-    250402 L01  .09+  .04+    
250401 K35  .42+  .16+    250402 932  .63-  .17-    250402 L01  .15+  .07+    
250401 K35  .25+  .29+    250402 932  .96-  .19-    250402 L01  .08-  .11+    
250401 K35  .33+  .13+    250402 932  .89-  .20-    250402 L01  .07-  .22-    
250401 K35  .58+  .07+    250402 W05( 2.9+  .25-)   250402 L01  .10-  .06+    
250401 I93  .19+  .52+    250402 W05  .98+  .55+    250402 L01  .00   .17+    
250401 I93  .30+  .03+    250402 W05  .37-  .32-    250402 595  .15+  .30+    
250401 I93  .19+  .11+    250402 932  .68-  .16-    250402 L01  .17-  .29+    
250401 K35  .21+  .24+    250402 B42  .69-  .31-    250402 L01  .05-  .09-    
250401 K35  .08-  .13+    250402 B42  .43-  .15-    250402 595  .20+  .05+    
250401 K35  .18+  .15+    250402 B42( 1.8-  .55-)   250402 595  .09+  .11+    
250401 K35  .18+  .02+    250402 104  .02+  .21+    250402 L65  .71+  .15-    
250401 958  .14+  .23-    250402 B15  .12-  .01-    250402 L65  .18+  .02-    
250401 033  .20-  .03-    250402 104  .23+  .23-    250402 L65  .04+  .05-    
250401 033  .18-  .07-    250402 B15  .02+  .05+    250402 Z80  .49+  .16-    
250401 033  .03+  .06-    250402 L38  .09-  .37-    250402 L38  .33+  .07-    
250401 K35  .23+  .01+    250402 B15  .14-  .25-    250402 L38  .42+  .04-    
250401 033  .08-  .04+    250402 L47  .99+  .43+    250402 Z80  .40-  .02+    
250401 K35  .28+  .19-    250402 L47  .76+  .32+    250402 K87  .20+  .17+    
250401 M54  .26+  .30-    250402 104  .02+  .11-    250402 K87  .35+  .33-    
250401 958  .25+  .40-    250402 L38  .13+  .01+    250402 K87  .36+  .21+    
250401 L65  .19+  .30+    250402 G02  .50-  .38-    250402 L39  .30-  .50+    
250401 M54  .17+  .18+    250402 L47  .21-  .16-    250402 L39  .20-  .21+    
250401 958  .08-  .06-    250402 L47  .08+  .01-    250402 L39  .32-  .15+    
250401 Z43  .10+  .20-    250402 L47  .02+  .77+    

Ephemerides (geocentric):
Date (UTC) HH   RA             Dec           delta  r     elong  mag " sig PA
---- --------  ------------   ------------  ------ ------ -----  --- --------
2025 04 02 23  13 09 53.989   +47 54 52.22  .02054 1.0122 126.7 18.3 .193 108
2025 04 03 00  13 08 35.403   +47 48 19.95  .02028 1.0121 126.8 18.3 .206 106
2025 04 03 01  13 07 15.070   +47 41 33.58  .02001 1.0120 126.9 18.2 .219 105
2025 04 03 02  13 05 52.937   +47 34 32.46  .01974 1.0118 127.1 18.2 .234 103
2025 04 03 03  13 04 28.948   +47 27 15.90  .01948 1.0117 127.2 18.2 .251 101
2025 04 03 04  13 03 03.047   +47 19 43.13  .01921 1.0116 127.3 18.1 .269  99
2025 04 03 05  13 01 35.176   +47 11 53.39  .01895 1.0115 127.5 18.1 .288  97
2025 04 03 06  13 00 05.272   +47 03 45.83  .01869 1.0114 127.6 18.1 .310  96
2025 04 03 07  12 58 33.274   +46 55 19.57  .01842 1.0112 127.7 18.0 .333  94
2025 04 03 08  12 56 59.115   +46 46 33.67  .01816 1.0111 127.9 18.0 .358  92
2025 04 03 09  12 55 22.728   +46 37 27.15  .01790 1.0110 128.0 17.9 .386  90
2025 04 03 10  12 53 44.043   +46 27 58.94  .01763 1.0109 128.2 17.9 .416  89
2025 04 03 11  12 52 02.988   +46 18 07.93  .01737 1.0108 128.3 17.9 .448  87
2025 04 03 12  12 50 19.488   +46 07 52.93  .01711 1.0107 128.5 17.8 .483  86
2025 04 03 13  12 48 33.465   +45 57 12.67  .01685 1.0106 128.6 17.8 .521  84
2025 04 03 14  12 46 44.840   +45 46 05.81  .01659 1.0104 128.8 17.8 .563  83
2025 04 03 15  12 44 53.529   +45 34 30.93  .01633 1.0103 129.0 17.7 .608  81
2025 04 03 16  12 42 59.446   +45 22 26.49  .01608 1.0102 129.2 17.7 .656  80
2025 04 03 17  12 41 02.505   +45 09 50.89  .01582 1.0101 129.3 17.6 .709  79
2025 04 03 18  12 39 02.613   +44 56 42.40  .01556 1.0100 129.5 17.6 .766  77
2025 04 03 19  12 36 59.676   +44 42 59.18  .01531 1.0099 129.7 17.6 .827  76
2025 04 03 20  12 34 53.599   +44 28 39.27  .01505 1.0097 129.9 17.5 .894  75
2025 04 03 21  12 32 44.280   +44 13 40.60  .01480 1.0096 130.1 17.5 .965  74
2025 04 03 22  12 30 31.617   +43 58 00.92  .01455 1.0095 130.3 17.4 1.04  72
2025 04 03 23  12 28 15.504   +43 41 37.89  .01429 1.0094 130.5 17.4 1.13  71
2025 04 04 00  12 25 55.834   +43 24 28.95  .01404 1.0093 130.7 17.3 1.22  70
2025 04 04 01  12 23 32.494   +43 06 31.42  .01379 1.0092 130.9 17.3 1.32  69
2025 04 04 02  12 21 05.370   +42 47 42.42  .01354 1.0090 131.1 17.3 1.42  68
2025 04 04 03  12 18 34.347   +42 27 58.87  .01330 1.0089 131.3 17.2 1.53  67
2025 04 04 04  12 15 59.304   +42 07 17.49  .01305 1.0088 131.5 17.2 1.66  66
2025 04 04 05  12 13 20.119   +41 45 34.79  .01281 1.0087 131.7 17.1 1.79  65
2025 04 04 06  12 10 36.670   +41 22 47.05  .01256 1.0086 132.0 17.1 1.93  64
2025 04 04 07  12 07 48.831   +40 58 50.27  .01232 1.0085 132.2 17.0 2.09  63
2025 04 04 08  12 04 56.473   +40 33 40.24  .01208 1.0084 132.4 17.0 2.26  62
2025 04 04 09  12 01 59.469   +40 07 12.43  .01185 1.0082 132.7 16.9 2.44  61
2025 04 04 10  11 58 57.688   +39 39 22.05  .01161 1.0081 132.9 16.9 2.63  60
2025 04 04 11  11 55 51.001   +39 10 03.99  .01138 1.0080 133.1 16.8 2.85  59
2025 04 04 12  11 52 39.278   +38 39 12.83  .01115 1.0079 133.4 16.8 3.07  58
2025 04 04 13  11 49 22.390   +38 06 42.83  .01092 1.0078 133.6 16.7 3.32  58
2025 04 04 14  11 46 00.207   +37 32 27.89  .01069 1.0077 133.8 16.7 3.59  57
2025 04 04 15  11 42 32.606   +36 56 21.58  .01046 1.0076 134.1 16.6 3.87  56
2025 04 04 16  11 38 59.462   +36 18 17.14  .01024 1.0074 134.3 16.6 4.18  55
2025 04 04 17  11 35 20.657   +35 38 07.43  .01002 1.0073 134.5 16.5 4.52  54
2025 04 04 18  11 31 36.077   +34 55 45.01  .00981 1.0072 134.8 16.5 4.88  53
2025 04 04 19  11 27 45.614   +34 11 02.08  .00960 1.0071 135.0 16.4 5.26  52
2025 04 04 20  11 23 49.168   +33 23 50.58  .00939 1.0070 135.2 16.4 5.68  52
2025 04 04 21  11 19 46.646   +32 34 02.17  .00918 1.0069 135.3 16.3 6.13  51
2025 04 04 22  11 15 37.969   +31 41 28.30  .00898 1.0068 135.5 16.2 6.61  50